Theta_e
347 347 349 346 344 341 341 341 342 341 339 336 333 331 331 332 332 332 334 336 337 337 337 337 338 340 342 342 342 342 341 341 341 334 332 332 333 335 332 332 333 333 334
340 346 348 348 347 347 343 343 344 343 341 340 335 332 330 330 330 332 334 335 335 335 336 337 337 339 340 340 340 341 339 339 339 331 334 337 340 340 332 332 333 336 331
337 344 347 347 346 346 347 344 344 344 343 342 341 337 333 329 330 332 336 337 337 337 337 337 337 338 338 340 341 340 338 339 333 333 335 338 342 342 337 332 333 337 332
338 336 343 346 347 346 345 345 344 344 344 343 341 340 339 336 329 331 335 337 338 340 339 339 338 336 337 340 342 338 337 335 333 333 335 340 340 339 334 332 333 334 331
338 336 339 343 346 345 343 343 344 343 343 342 342 340 340 339 332 332 334 332 338 340 340 341 340 340 339 337 342 337 335 333 336 340 336 335 336 334 333 333 332 330 332
341 336 337 342 344 344 343 342 341 343 342 342 341 339 339 340 336 330 331 334 337 341 342 340 340 341 340 336 340 336 334 337 344 344 342 342 332 333 332 334 331 331 329
345 337 337 341 343 343 342 342 342 341 341 341 340 338 337 339 337 332 333 339 337 340 341 342 344 340 338 337 339 335 338 346 345 344 343 342 335 332 331 335 337 330 329
343 334 336 339 341 343 342 341 341 340 339 340 340 338 336 336 335 333 336 338 338 340 341 343 344 340 336 337 336 336 343 344 343 343 344 344 340 334 338 336 333 329 327
342 339 333 332 337 342 342 341 341 338 338 339 338 338 336 334 333 334 337 338 339 339 342 343 343 342 340 339 335 337 340 345 344 345 343 344 341 336 336 335 333 328 327
351 350 346 338 333 337 341 341 339 337 337 336 337 336 335 333 333 336 336 337 338 340 341 342 342 341 340 340 338 337 337 343 345 345 343 344 339 336 333 332 333 332 329
354 352 348 344 338 334 338 340 335 334 334 334 335 335 335 332 334 337 339 337 337 339 341 343 343 341 339 339 340 337 337 344 346 345 344 344 342 335 336 333 333 334 330
355 353 351 348 340 335 334 335 334 335 335 335 334 333 333 333 334 338 340 340 339 339 340 342 342 342 340 340 339 336 338 343 345 345 344 346 338 333 336 336 334 334 334
351 350 347 348 347 343 336 333 335 338 339 337 335 333 333 334 334 341 340 344 340 340 340 341 341 341 341 340 339 336 337 341 342 346 339 343 343 342 336 336 336 334 335
352 350 348 349 347 347 348 346 344 342 341 340 339 337 336 336 340 337 337 340 341 342 339 340 340 340 341 341 341 337 337 338 339 344 343 342 344 344 340 334 336 336 337
353 347 348 347 349 347 345 345 347 348 345 342 341 340 339 336 339 337 336 337 339 343 340 340 341 341 341 345 344 341 339 337 339 343 342 344 344 344 342 331 334 337 337
345 346 347 348 347 346 342 345 344 343 342 344 344 343 341 339 340 341 340 337 339 340 341 342 341 343 342 344 344 344 345 340 339 343 343 345 344 342 341 331 331 335 336
347 348 348 346 346 337 340 342 342 339 338 342 342 340 336 339 341 341 341 340 338 340 340 340 340 344 346 346 346 344 344 344 344 343 342 344 343 342 342 333 330 333 335
348 345 346 345 340 340 337 336 341 344 342 340 342 344 338 332 339 340 338 339 340 336 340 339 340 342 345 345 344 345 345 344 344 343 345 344 344 344 344 344 335 332 334
347 343 342 337 344 341 340 336 340 341 342 342 343 342 343 342 339 342 340 339 338 339 339 339 339 340 342 344 343 345 345 345 343 344 344 344 344 345 344 342 340 333 334
347 342 342 343 340 343 345 342 342 343 341 341 342 344 343 344 342 340 341 340 339 339 339 339 337 338 341 343 341 344 342 343 344 343 344 344 344 346 344 344 340 338 337
350 351 350 349 348 350 348 348 345 343 341 341 342 342 341 343 342 342 340 338 338 338 339 338 337 337 340 341 340 342 342 343 344 344 344 345 343 343 344 343 343 341 340
351 351 351 351 351 350 351 349 349 347 345 344 343 342 341 341 341 340 339 340 338 337 340 340 337 335 339 339 339 341 342 342 341 341 342 342 342 343 344 344 343 343 341
350 350 351 352 352 351 349 348 347 346 343 341 341 339 339 341 340 339 340 339 338 337 339 339 339 337 338 339 339 340 339 340 338 339 343 341 342 344 344 343 342 342 342
348 349 351 350 350 350 349 346 344 341 340 339 336 336 335 335 335 336 337 337 338 337 338 340 339 338 337 339 339 341 338 339 339 336 335 337 339 341 342 343 341 341 343
349 350 348 348 349 348 343 341 338 335 336 336 336 338 337 337 337 336 335 337 338 338 336 338 341 340 339 337 339 339 337 340 339 337 335 335 339 339 340 340 341 343 343
350 349 348 348 345 341 340 336 337 335 335 337 337 336 339 338 337 335 336 338 338 338 336 337 340 340 339 338 339 339 337 339 340 337 335 333 339 340 341 341 343 342 342
Wind_Speed
26 26 23 24 24 24 23 22 21 21 19 18 17 17 17 18 17 16 16 15 15 14 13 12 11 11 9 7 7 7 6 11 12 13 14 15 16 15 14 13 14 16 17
29 28 26 25 24 23 22 21 20 19 19 18 17 16 16 16 16 15 15 14 14 14 13 12 11 10 8 7 6 8 9 12 13 13 15 17 16 16 13 11 13 16 16
26 27 25 24 23 22 21 20 19 19 18 18 17 15 15 14 14 14 13 14 13 13 13 13 12 10 8 8 9 10 12 15 14 13 14 14 15 12 11 10 13 15 15
24 25 25 24 23 21 19 18 17 17 16 16 16 14 13 13 13 13 11 11 11 11 12 12 12 10 8 10 12 13 15 15 14 13 13 12 12 12 9 10 13 15 14
26 25 25 25 23 20 18 17 16 15 14 13 14 14 13 11 11 11 10 9 8 9 9 10 10 9 8 10 13 15 16 15 17 15 13 8 9 10 9 11 13 13 14
23 25 24 24 23 20 17 16 16 15 13 11 11 11 11 11 9 9 8 8 7 7 7 8 8 8 9 11 13 15 16 18 16 12 10 7 6 8 10 12 13 13 14
22 24 25 24 22 19 16 15 14 14 12 11 10 10 10 10 9 8 7 7 6 6 6 7 7 9 10 12 13 16 17 19 15 11 10 8 6 7 10 12 12 12 13
22 22 21 20 20 18 16 14 13 13 12 10 9 9 8 9 7 7 7 7 5 6 6 6 7 8 11 13 14 18 19 18 14 13 11 6 5 7 10 11 10 11 12
21 20 20 19 17 17 16 15 13 12 12 11 9 8 8 7 6 5 6 4 4 5 6 6 7 8 10 12 15 19 18 16 15 14 11 9 7 7 9 10 10 10 11
19 17 17 17 17 18 17 16 14 13 13 11 11 9 9 8 7 6 6 5 4 5 6 7 6 7 9 12 15 20 20 17 17 17 13 10 9 7 8 10 10 11 11
19 15 14 14 16 17 17 16 15 14 14 13 13 11 11 8 7 6 4 4 5 5 6 7 6 8 8 9 14 20 23 19 13 16 13 10 8 8 8 10 11 11 12
19 16 12 12 17 17 18 17 16 16 15 15 14 14 12 11 10 9 6 6 6 6 6 7 7 8 8 8 11 21 22 19 12 11 10 10 9 8 9 9 11 11 11
17 14 13 11 13 15 17 17 17 16 16 16 15 14 14 13 10 6 6 5 6 6 7 8 8 8 7 8 13 18 20 19 16 12 12 13 12 12 11 10 11 12 12
17 11 12 12 12 11 13 14 15 17 19 17 16 16 16 15 12 7 6 7 8 9 10 9 9 8 8 9 12 16 21 21 18 15 10 14 14 13 12 12 12 13 13
18 14 14 12 12 12 13 15 15 15 16 17 18 19 19 17 16 13 11 10 9 11 10 11 11 10 11 12 14 13 18 21 21 17 11 15 15 14 11 13 13 14 14
17 18 15 13 11 12 10 11 13 11 15 18 19 19 20 21 20 19 19 16 14 14 12 11 10 10 10 11 12 10 14 17 23 18 14 16 15 13 12 13 15 16 16
16 18 15 13 13 11 10 11 12 10 13 14 15 12 18 19 19 17 18 18 14 16 14 13 11 14 12 13 11 11 11 17 21 23 18 17 17 17 17 17 17 17 17
20 18 15 15 13 13 11 9 11 13 13 12 12 12 14 16 16 17 16 16 14 20 19 16 13 14 13 12 11 10 9 10 15 19 14 14 16 16 16 17 17 17 18
20 20 19 16 17 17 15 13 11 12 14 15 14 14 14 15 17 18 15 13 16 19 23 18 15 16 15 14 12 10 10 11 10 12 13 15 15 14 14 13 17 17 20
20 19 17 14 15 13 12 12 14 15 16 17 16 17 18 17 19 19 19 16 14 21 23 23 18 15 15 12 13 12 9 12 12 13 14 14 15 14 15 19 17 24 25
21 19 18 15 15 15 14 15 15 15 15 16 18 20 22 25 21 21 21 21 19 20 25 22 21 19 17 17 17 14 11 12 13 13 14 16 16 16 17 19 18 18 24
27 23 19 14 14 15 17 16 16 16 17 18 19 19 22 22 19 22 23 22 21 21 25 23 23 22 19 21 16 14 9 13 10 9 11 11 13 19 20 21 21 19 23
29 22 17 12 13 13 15 12 13 14 15 17 18 19 20 22 24 24 23 24 22 23 25 25 25 24 23 23 21 13 7 6 7 6 3 6 11 16 20 21 22 22 22
30 22 15 13 10 10 9 7 10 11 10 12 16 16 17 19 22 22 23 24 25 22 26 24 25 25 24 22 23 19 10 8 6 5 3 3 9 12 19 22 19 19 20
20 15 14 12 9 7 5 4 6 8 9 10 11 13 15 15 18 22 20 20 24 24 24 27 26 26 26 26 26 24 21 15 10 7 2 8 13 13 13 16 17 17 19
17 16 17 12 8 2 0 1 4 8 9 7 6 8 13 10 10 16 16 17 18 22 23 26 26 24 24 27 26 24 22 19 15 10 8 10 17 14 10 11 14 15 15
Wind_Direction
173 163 158 151 147 148 144 142 136 131 129 124 124 124 123 125 129 132 134 137 143 146 148 143 137 127 129 130 130 137 143 137 134 127 126 123 120 118 111 117 122 117 117
163 164 163 154 151 147 147 144 139 134 131 127 124 125 126 128 130 130 133 139 145 148 151 151 144 132 128 143 144 138 140 142 137 131 133 129 122 118 104 117 119 121 119
165 164 164 160 155 150 151 148 145 142 138 134 131 131 126 126 131 130 130 129 133 137 146 151 146 140 129 132 136 134 138 140 137 137 140 134 128 116 115 114 120 127 120
164 164 167 166 159 152 152 153 150 148 145 141 135 134 132 132 130 134 131 128 132 139 143 147 147 142 130 124 135 137 139 139 135 136 138 133 130 131 125 126 131 128 124
164 166 170 166 164 160 158 158 157 156 151 147 140 137 137 137 133 139 134 132 136 141 147 152 151 146 139 132 142 146 144 146 140 128 134 121 140 137 134 135 138 132 134
168 167 170 170 167 164 164 159 158 160 158 151 145 142 140 141 136 141 140 136 138 147 153 163 164 157 150 145 150 153 153 154 147 137 135 139 140 147 144 143 142 136 138
172 170 171 174 168 166 164 162 162 162 163 161 155 148 144 149 147 147 148 145 145 151 156 164 172 160 159 157 156 158 158 156 151 157 154 140 145 161 153 150 144 144 141
161 164 170 177 175 171 166 167 167 168 170 171 163 155 152 153 154 157 161 157 158 156 163 170 172 162 165 161 165 168 158 160 160 167 160 167 165 167 159 156 154 153 148
155 157 168 181 183 179 174 173 173 175 178 178 172 169 162 160 159 168 170 170 173 177 169 183 173 175 173 167 172 179 168 169 173 172 174 182 178 179 176 172 167 163 158
168 170 173 179 189 192 186 182 180 181 183 182 185 182 177 180 174 178 187 181 201 208 194 189 188 180 175 171 182 183 177 170 171 180 180 180 183 185 191 182 175 170 168
169 174 184 187 190 196 198 190 185 188 193 192 187 191 194 186 180 182 201 215 205 211 215 206 204 187 178 180 186 189 186 181 192 189 187 188 201 190 200 191 183 178 177
174 174 185 188 193 191 200 198 195 195 199 201 194 200 197 188 191 186 201 219 224 213 220 216 204 204 193 179 187 190 192 183 183 185 194 192 188 199 198 203 196 190 185
179 181 177 169 182 199 202 199 199 203 206 207 206 207 202 200 198 193 206 216 223 240 228 229 219 211 205 191 183 190 198 194 195 189 203 201 217 222 210 205 212 203 196
193 196 194 184 182 189 199 207 211 209 212 208 208 207 214 208 195 205 198 217 234 246 234 223 224 215 203 182 176 193 201 204 210 203 220 211 216 221 215 213 216 213 206
211 217 205 195 198 205 209 209 214 220 220 220 218 215 218 209 211 229 236 251 244 241 235 226 214 219 215 194 188 186 207 214 215 225 224 206 210 216 222 217 220 219 217
205 207 201 199 200 217 217 205 210 221 218 222 219 225 227 224 235 242 250 250 260 232 233 231 223 221 218 213 215 202 205 214 221 230 225 226 216 245 236 222 225 227 224
191 199 196 195 206 214 213 207 216 229 217 230 228 234 247 237 242 238 238 241 254 225 226 228 218 215 217 219 219 223 215 217 227 232 234 235 243 246 233 227 229 231 231
197 202 206 209 216 217 218 218 215 221 230 237 234 242 258 245 237 241 241 241 242 225 231 232 227 219 216 217 212 213 215 208 218 225 239 239 238 231 236 235 232 236 237
205 210 209 212 219 218 221 221 233 240 246 247 240 242 245 251 251 239 247 252 242 234 230 226 227 223 218 219 209 207 211 225 220 227 233 240 236 243 233 237 226 233 241
207 209 211 214 212 215 224 235 237 239 251 252 252 251 248 256 250 244 242 247 251 236 229 224 223 227 221 217 214 211 223 222 228 235 248 246 242 240 241 234 238 232 236
213 207 211 221 226 228 234 237 247 259 258 255 256 256 256 255 247 241 242 244 242 240 230 225 226 223 217 211 216 218 224 232 232 236 238 241 251 252 251 245 238 260 239
212 209 214 223 225 234 247 256 259 264 267 265 262 257 261 252 244 241 243 245 246 238 232 228 219 221 221 218 218 223 213 220 227 228 239 246 264 257 257 261 260 259 243
208 206 208 218 229 234 247 255 265 270 273 273 267 262 259 252 258 254 247 243 244 241 232 228 221 220 220 216 209 205 194 195 190 188 218 254 264 259 260 259 259 249 248
195 194 206 212 208 225 245 259 266 275 281 279 277 269 260 257 256 249 244 241 238 238 230 226 224 221 218 216 212 213 217 189 193 180 180 315 304 270 259 256 251 242 244
168 181 204 206 198 214 258 290 301 312 311 301 284 275 274 264 253 238 239 234 232 234 230 224 223 223 219 218 216 218 223 218 220 221 197 337 297 301 275 253 241 238 240
166 184 190 185 182 189 102 269 335 333 334 322 302 298 295 253 246 225 231 236 234 225 227 220 222 225 225 222 222 226 224 215 219 219 201 224 283 278 288 240 226 227 235